[[{"header":{"parameterUnit":"m.s-1","parameterCategory":1,"la1":30.2992,"la2":30.254,"lo1":-89.0895,"lo2":-89.0443,"dy":0.0025,"dx":0.0025,"nx":19,"ny":19,"refTime":"2026-04-19T09:00:00:Z","depth":0,"parameterNumber":2,"parameterNumberName":"U-component_of_WINDS"},"data":[0,0,0,-1.8698,-1.8699,-1.8734,-1.8734,-1.8802,-1.8803,0,0,0,0,0,0,0,0,0,0,0,-1.8702,-1.8703,-1.8698,-1.8699,-1.8734,-1.8734,-1.8802,-1.8803,0,0,0,0,0,0,0,0,0,0,0,-1.8701,-1.8703,-1.8704,-1.8699,-1.8734,-1.8734,-1.8802,-1.8767,0,0,0,0,0,0,0,0,0,0,-1.8729,-1.8747,-1.8702,-1.8704,-1.8699,-1.8734,-1.8734,-1.8765,-1.8769,-1.8796,0,-1.8824,0,-1.8815,-1.8809,-1.8809,0,0,0,-1.8688,-1.8744,-1.874,-1.8704,-1.87,-1.8734,-1.8715,-1.8767,-1.8772,-1.8802,-1.8825,-1.8827,-1.8816,-1.8809,-1.881,-1.9002,-1.9003,0,0,-1.8686,-1.8716,-1.8737,-1.8744,-1.874,-1.8714,-1.8716,-1.877,-1.8797,-1.8825,-1.8828,-1.8817,-1.881,-1.8811,-1.9,-1.9002,0,0,0,-1.8688,-1.8715,-1.8709,-1.8742,-1.8746,-1.8715,-1.8718,-1.8794,-1.879,-1.8829,-1.8818,-1.8811,-1.8812,-1.8999,-1.9001,-1.9099,0,0,0,-1.8686,-1.8716,-1.8709,-1.8728,-1.8745,-1.8771,-1.8742,-1.8786,-1.8791,-1.8817,-1.8811,-1.8813,-1.8997,-1.9,-1.9093,-1.9142,0,0,0,-1.8695,-1.8717,-1.8727,-1.8729,-1.8745,-1.8769,-1.8767,-1.8787,-1.8785,-1.8809,-1.8813,-1.8996,-1.8999,-1.9088,-1.9133,-1.9202,0,0,0,-1.8712,-1.8814,-1.8729,-1.8838,-1.8745,-1.8829,-1.8767,-1.8828,-1.886,-1.8811,-1.8997,-1.9001,-1.9086,-1.9127,-1.9196,-1.9266,-1.9298,0,0,-1.8857,-1.8833,-1.8894,-1.8819,-1.8926,-1.8821,-1.8942,-1.8944,-1.8919,-1.8975,-1.898,-1.9095,-1.9132,-1.92,-1.9461,-1.9487,0,0,0,-1.895,-1.8995,-1.9017,-1.9049,-1.9052,-1.9058,-1.9038,-1.9038,-1.9084,-1.8954,-1.9137,-1.9158,-1.9197,-1.9229,-1.9251,-1.9283,-1.9016,-1.9016,-1.9016,-1.92,-1.9162,-1.9261,-1.9227,-1.9259,-1.9236,-1.9258,-1.9254,-1.9207,-1.9251,-1.9268,-1.9431,-1.947,-1.9486,-1.952,-1.93,-1.9301,-1.9301,-1.9301,-1.941,-1.9469,-1.9401,-1.9474,-1.9433,-1.9494,-1.9475,-1.9439,-1.949,-1.9415,-1.9447,-1.937,-1.9515,-1.9542,-1.9308,-1.9307,-1.9306,-1.9306,-1.9305,-1.9572,-1.9593,-1.959,-1.9631,-1.9667,-1.9628,-1.968,-1.964,-1.9603,-1.9634,-1.9649,-1.9647,-1.9642,-1.9644,-1.9644,-1.9645,-1.9645,-1.9646,-1.9646,-1.9741,-1.9735,-1.9783,-1.9793,-1.9808,-1.9822,-1.9798,-1.9811,-1.9816,-1.9783,-1.9783,-1.9733,-1.9535,-1.9488,-1.9655,-1.9653,-1.9652,-1.9651,-1.9651,-1.9973,-1.9913,-1.9989,-2.0003,-2.0011,-2.0049,-1.9996,-2.0027,-2.0031,-2.0058,-1.9999,-1.9859,-1.9832,-1.9814,-1.9775,-2.0006,-2.0006,-2.0006,-2.0006,-2.0111,-2.0092,-2.0159,-2.0184,-2.0205,-2.0164,-2.025,-2.0232,-2.0204,-2.0205,-2.0165,-2.0108,-2.0092,-2.0074,-2.0051,-2.0014,-2.0301,-2.0301,-2.0301,-2.0252,-2.0232,-2.0314,-2.0285,-2.0287,-2.0291,-2.0371,-2.0403,-2.0359,-2.0313,-2.0205,-2.0193,-2.0101,-2.0072,-2.0027,-1.9992,-1.9923,0,0]},{"header":{"parameterUnit":"m.s-1","parameterCategory":1,"la1":30.2992,"la2":30.254,"lo1":-89.0895,"lo2":-89.0443,"dy":0.0025,"dx":0.0025,"nx":19,"ny":19,"refTime":"2026-04-19T09:00:00:Z","depth":0,"parameterNumber":3,"parameterNumberName":"V-component_of_WINDS"},"data":[0,0,0,-0.0582,-0.0583,-0.0684,-0.0684,-0.08,-0.0801,0,0,0,0,0,0,0,0,0,0,0,-0.0545,-0.0546,-0.0581,-0.0584,-0.0684,-0.0684,-0.08,-0.0801,0,0,0,0,0,0,0,0,0,0,0,-0.0545,-0.0546,-0.0546,-0.0584,-0.0684,-0.0684,-0.0799,-0.0728,0,0,0,0,0,0,0,0,0,0,-0.0633,-0.0593,-0.0545,-0.0546,-0.0585,-0.0684,-0.0684,-0.0725,-0.0733,-0.0749,0,-0.0763,0,-0.0784,-0.0808,-0.0808,0,0,0,-0.0589,-0.0587,-0.062,-0.0546,-0.0585,-0.0683,-0.064,-0.0729,-0.0738,-0.0759,-0.0765,-0.0769,-0.0785,-0.0808,-0.0809,-0.0889,-0.0889,0,0,-0.0583,-0.056,-0.0614,-0.0625,-0.061,-0.0637,-0.0643,-0.0735,-0.0739,-0.0765,-0.0772,-0.0787,-0.0809,-0.081,-0.0889,-0.0889,0,0,0,-0.0564,-0.0556,-0.0587,-0.062,-0.0639,-0.064,-0.0647,-0.0735,-0.0747,-0.0774,-0.0789,-0.081,-0.0811,-0.0889,-0.0889,-0.0873,0,0,0,-0.0561,-0.0545,-0.0584,-0.0571,-0.0637,-0.0689,-0.0645,-0.0741,-0.0752,-0.0788,-0.081,-0.0812,-0.0889,-0.0889,-0.0873,-0.087,0,0,0,-0.0541,-0.0542,-0.0555,-0.0569,-0.0611,-0.0688,-0.0705,-0.0744,-0.0761,-0.0808,-0.0812,-0.0888,-0.0889,-0.0874,-0.0871,-0.0884,0,0,0,-0.0513,-0.054,-0.0554,-0.0589,-0.061,-0.0677,-0.0705,-0.0756,-0.0794,-0.081,-0.0889,-0.0889,-0.0874,-0.0871,-0.0884,-0.0892,-0.0893,0,0,-0.0535,-0.0542,-0.0565,-0.058,-0.0638,-0.0663,-0.0719,-0.0777,-0.0803,-0.0858,-0.0861,-0.0873,-0.0871,-0.0884,-0.0905,-0.0905,0,0,0,-0.0564,-0.058,-0.06,-0.0635,-0.0679,-0.0716,-0.0768,-0.0788,-0.0837,-0.0827,-0.0882,-0.0881,-0.089,-0.0895,-0.0896,-0.0905,-0.089,-0.089,-0.089,-0.0562,-0.0592,-0.0631,-0.0672,-0.0706,-0.0757,-0.0787,-0.0824,-0.0846,-0.0857,-0.0875,-0.0884,-0.0888,-0.0889,-0.0898,-0.0881,-0.0881,-0.0881,-0.0881,-0.0596,-0.0624,-0.0649,-0.0696,-0.0727,-0.0767,-0.0815,-0.0829,-0.0869,-0.0874,-0.0883,-0.0886,-0.0889,-0.0898,-0.088,-0.088,-0.088,-0.088,-0.088,-0.06,-0.0618,-0.0642,-0.0694,-0.073,-0.0771,-0.0808,-0.0835,-0.086,-0.0869,-0.089,-0.089,-0.0894,-0.0877,-0.0877,-0.0877,-0.0877,-0.0877,-0.0877,-0.0594,-0.0622,-0.065,-0.0696,-0.0721,-0.0757,-0.0805,-0.083,-0.0864,-0.0881,-0.0881,-0.0901,-0.0883,-0.0878,-0.0877,-0.0877,-0.0877,-0.0877,-0.0877,-0.0621,-0.0618,-0.0662,-0.0686,-0.0741,-0.0774,-0.0807,-0.0854,-0.0878,-0.0895,-0.0912,-0.0894,-0.0904,-0.0904,-0.09,-0.0905,-0.0905,-0.0905,-0.0905,-0.0624,-0.0631,-0.068,-0.0717,-0.0756,-0.0789,-0.0835,-0.0871,-0.0909,-0.0925,-0.0928,-0.0925,-0.0923,-0.0934,-0.0934,-0.0931,-0.0943,-0.0943,-0.0943,-0.0642,-0.0653,-0.0689,-0.0724,-0.0768,-0.0804,-0.0849,-0.0889,-0.0931,-0.0946,-0.0939,-0.0937,-0.0932,-0.0929,-0.0946,-0.0944,-0.094,0,0]}]]